Location: ????
(48.3371°N, 34.0628°E)
Time: 05:37:09
(UTC+00:00)

Daily predictions for brighter satellites

Satellite Brightness Start Highest point End
(mag) Time Altitude Azimuth Time Altitude Azimuth Time Altitude Azimuth
ISS -2.8 00:03:26 16° WNW 00:05:54 46° N 00:09:12 10° ENE
GP-B 4.1 00:05:04 10° NNE 00:09:22 45° E 00:13:37 10° SSE
SL-19 R/B 4.3 00:03:50 10° NNE 00:09:36 72° WNW 00:12:53 25° SSW
Cosmos 1544 Rocket 4.2 00:05:24 10° N 00:09:43 56° ENE 00:14:03 10° SSE
Tianhe-1 3.2 00:13:22 15° SSE 00:13:22 15° SSE 00:14:19 10° SE
ADEOS II 2.1 00:06:47 10° NNE 00:12:04 86° E 00:15:35 22° SSW
SL-16 R/B 3.0 00:09:28 24° SSW 00:12:45 41° W 00:18:40 10° NNW
Resurs 1-4 Rocket 2.6 00:10:19 10° N 00:15:19 45° WNW 00:18:10 23° SW
Cosmos 2123 Rocket 4.1 00:11:09 16° S 00:16:10 77° E 00:22:23 10° NNE
Cosmos 2251 Rocket 3.4 00:10:56 10° NNW 00:16:11 76° WSW 00:21:24 10° SSE
In-Cosmos 22 4.2 00:13:41 22° SSW 00:17:29 83° WNW 00:23:03 10° N
Meteor 2-11 Rocket 4.4 00:11:39 10° NNW 00:17:49 74° W 00:23:24 13° S
IRS-1D 3.6 00:15:10 10° NNE 00:20:31 85° ESE 00:24:30 19° SSW
Cosmos 1455 Rocket 2.9 00:16:18 10° NNW 00:20:38 71° W 00:23:44 18° S
DELTA 2 DEB (DPAF) 4.2 00:19:17 20° S 00:22:17 59° WSW 00:26:43 10° NNW
Meteor 1-29 3.4 00:20:06 10° N 00:23:21 45° WNW 00:24:35 30° SW
USA 281 4.4 00:23:02 19° WSW 00:25:00 22° W 00:29:58 10° NW
USA 276 2.7 00:25:17 32° SSW 00:26:10 40° SSE 00:29:11 10° E
Cosmos 1674 2.6 00:27:34 23° SSW 00:29:50 78° W 00:33:42 10° N
Cosmos 1953 2.3 00:26:07 10° NNW 00:30:03 64° W 00:32:58 17° S
Cosmos 2219 3.2 00:25:22 10° NNW 00:31:04 71° WSW 00:36:45 10° SSE
COSMOS 2455 3.0 00:29:01 10° NW 00:34:48 50° WSW 00:40:34 10° S
KORONAS-FOTON 3.9 00:35:10 22° SSW 00:37:35 65° W 00:41:31 10° N
Cosmos 1656 3.6 00:39:43 18° SSW 00:43:50 79° WNW 00:49:23 10° NNE
Cosmos 1707 4.2 00:42:24 17° WSW 00:44:05 23° WNW 00:47:12 10° NNW
USA 129 4.5 00:43:49 10° ESE 00:44:52 13° E 00:45:43 10° NE
Timation 1 Rocket 4.3 00:38:52 10° NNW 00:44:53 87° WSW 00:50:52 10° SSE
SL-08 R/B 3.6 00:41:18 10° SSE 00:46:00 70° ENE 00:50:39 10° N
IRS-1C 4.4 00:41:38 10° NNE 00:46:59 71° ESE 00:52:18 10° S
Cosmos 1300 3.4 00:43:53 10° N 00:47:39 54° ENE 00:51:23 10° SSE
Cosmos 1726 4.3 00:52:08 10° WNW 00:53:19 11° W 00:53:55 11° W
Cosmos 1975 Rocket 3.9 00:51:04 17° SW 00:53:50 34° WNW 00:57:50 10° N
Cosmos 304 Rocket 3.9 00:49:34 12° SSW 00:53:57 75° ESE 00:58:46 10° NNE
Lacrosse 5 2.1 00:50:13 15° WSW 00:54:29 66° NNW 00:59:35 10° NE
Cosmos 2263 Rocket 4.0 00:51:06 10° NNW 00:56:18 37° NE 01:01:31 10° ESE
Helios 1B rocket 4.5 00:55:00 10° NNW 00:57:31 16° WNW 01:00:03 10° W
ARIANE 5 R/B 2.8 00:52:40 10° NNE 00:57:51 71° ESE 01:02:57 10° S
Cosmos 1140 Rocket 3.5 00:53:22 10° NNW 00:58:37 89° WSW 01:03:51 10° SSE
CZ-4C R/B 4.0 00:55:39 10° S 00:59:46 40° W 01:03:47 10° NNW
Cosmos 1908 4.0 00:56:42 10° NNW 01:00:15 34° W 01:03:23 12° SSW
Cosmos 1190 Rocket 4.1 00:58:16 10° NNW 01:03:31 87° ENE 01:08:46 10° SSE
Cosmos 1725 Rocket 4.4 00:57:59 10° NNW 01:03:54 45° W 01:09:46 10° SSW
TSX-5 3.9 01:00:57 10° NW 01:04:09 42° WSW 01:07:52 10° S
Timation 2 Rocket 4.3 01:02:52 10° NW 01:08:24 40° WSW 01:13:57 10° S
Cosmos 1626 2.5 01:07:04 12° SSW 01:10:16 47° WNW 01:13:52 10° N
APEX 3.6 01:07:00 10° NW 01:11:11 70° WSW 01:16:26 10° SSE
ATLAS CENTAUR R/B 3.8 01:12:20 10° NW 01:13:44 12° NNW 01:15:11 10° N
Cosmos 371 Rocket 4.0 01:12:36 12° SW 01:16:52 41° WNW 01:21:32 10° NNE
BREEZE-M DEB (TANK) 2.8 01:15:06 11° SW 01:17:42 28° SSE 01:19:42 10° E
Iridium 2 3.9 01:14:17 10° SSW 01:18:00 54° W 01:21:46 10° N
Cosmos 332 Rocket 4.0 01:14:45 10° SW 01:19:32 59° WNW 01:24:22 10° NNE
Cosmos 2233 Rocket 4.2 01:13:39 10° NNW 01:19:40 52° W 01:25:35 10° SSW
Cosmos 1697 Rocket 2.7 01:14:05 10° SSW 01:19:42 80° WNW 01:25:22 10° NNE
Lacrosse 4 Rocket 2.0 01:15:22 10° SSW 01:19:46 60° ESE 01:24:09 10° NE
SL-14 R/B 3.5 01:20:02 10° SSW 01:23:50 53° WNW 01:27:42 10° N
Cosmos 676 Rocket 4.2 01:20:46 10° NNW 01:26:02 83° ENE 01:31:19 10° SSE
IRS-P3 4.4 01:22:03 10° N 01:27:17 56° WNW 01:32:29 10° SW
Cosmos 2285 Rocket 4.2 01:21:13 10° SSW 01:27:36 81° ESE 01:34:04 10° NNE
Cosmos 1980 Rocket 2.5 01:24:14 10° SSW 01:29:52 70° ESE 01:35:32 10° NNE
CZ-2D R/B 4.2 01:27:44 10° NNW 01:30:25 14° NW 01:33:05 10° W
Cosmos 407 Rocket 3.9 01:26:01 10° NW 01:31:04 44° WSW 01:36:07 10° S
Meteor 2-10 Rocket 4.0 01:25:45 10° N 01:31:36 81° ENE 01:37:15 10° SSE
CZ-2C R/B 2.9 01:27:14 10° NNE 01:32:17 67° ESE 01:37:25 10° S
Cosmos 1624 Rocket 4.1 01:28:57 10° SSW 01:34:17 86° WNW 01:39:40 10° NNE
Cosmos 2227 Rocket 3.1 01:30:36 10° NW 01:35:15 27° WSW 01:39:53 10° SSW
Cosmos 1340 2.6 01:32:28 10° SSW 01:36:12 80° WNW 01:39:59 10° N
SL-24 R/B 4.4 01:33:00 10° SSE 01:36:38 62° ENE 01:40:37 10° N
Cosmos 2369 3.8 01:31:58 10° SSW 01:37:43 77° WNW 01:43:29 10° NNE
CZ-4B R/B 3.8 01:33:56 10° N 01:38:40 50° WNW 01:43:31 10° SW
Cosmos 2297 Rocket 3.5 01:34:43 10° NW 01:38:41 20° W 01:42:39 10° SW
Cosmos 1025 Rocket 4.4 01:35:13 10° SW 01:38:46 24° WNW 01:42:21 10° NNW
Cosmos 2058 Rocket 4.4 01:35:17 10° N 01:39:38 46° ENE 01:43:58 10° SSE
CZ-2D R/B 3.7 01:35:37 10° N 01:39:56 62° WNW 01:44:17 10° SSW
Cosmos 2278 4.0 01:35:33 10° SSW 01:41:14 75° ESE 01:46:58 10° NNE
